x

Portland 12 Nm Southeast Of Portland,me (44007) Wave Buoy

11:50 - Tue 15th Apr 2014 All times are EDT. -4 hours from GMT.

  • Sig Wave height 6.9ft
  • Swell Direction
  • Peak Period 8s
  • Average Period 6s
  • Wind
    18mph, 25mph gusts
  • Sea Temp 41°f
  • Ar Temp 45°f
  • Sea Pressure 1002.5mb
  • Portland 12 Nm Southeast Of Portland,me
  • Portland 12 Nm Southeast Of Portland,me

More Historic Weather Station data

Upgrade to MSW Pro to gain access to the past 30 days of data for over 8000 Wavebouys and Weather Stations around the globe.

Join Pro

Comparision Forecast

View Surf forecast
   
Ter 04/15 11:50 7ft 8s 6s 18 25 mph 1002.5mb 41f 45f
10:50 8ft 7s 6s 16 18 mph 1001.5mb 40f 45f
9:50 8ft 8s 6s 25 29 mph 1000.4mb 41f 47f
8:50 8.5ft 8s 6s 25 29 mph 1000.5mb 41f 47f
7:50 7.5ft 8s 6s 22 27 mph 1000.8mb 41f 47f
6:50 8ft 8s 6s 29 34 mph 1000.5mb 41f 49f
5:50 7ft 7s 5s 29 36 mph 1000.7mb 41f 49f
4:50 7ft 7s 5s 27 31 mph 1001.6mb 41f 48f
3:50 6ft 7s 5s 27 29 mph 1002.4mb 41f 49f
2:50 5.5ft 7s 5s 27 34 mph 1003.4mb 41f 49f
1:50 6ft 7s 5s 25 29 mph 1004.2mb 41f 47f
12:50 5ft 7s 5s 25 27 mph 1005.1mb 41f 47f
11:50 6ft 7s 5s 25 27 mph 1006.3mb 41f 47f
10:50 5ft 7s 5s 22 27 mph 1007.6mb 41f 47f
9:50 4.5ft 7s 5s 22 27 mph 1008.2mb 41f 47f
8:50 4.5ft 7s 5s 22 27 mph 1008.5mb 41f 46f
7:50 4.5ft 6s 5s 22 27 mph 1009.6mb 41f 46f
6:50 5ft 6s 5s 22 27 mph 1009.7mb 41f 47f
5:50 5ft 6s 5s 20 22 mph 1010.1mb 41f 47f
4:50 5ft 6s 5s 18 20 mph 1010.3mb 41f 47f
3:50 4.5ft 6s 5s 22 25 mph 1010mb 41f 48f
2:50 5ft 6s 5s 20 22 mph 1010.2mb 41f 47f
1:50 5ft 7s 5s 20 22 mph 1010.3mb 41f 46f
12:50 5ft 7s 5s 18 22 mph 1010.9mb 41f 47f
Seg 04/14 11:50 6ft 7s 5s 20 25 mph 1010.8mb 40f 47f
10:50 7ft 7s 5s 25 29 mph 1010.3mb 40f 47f
9:50 6.5ft 7s 5s 27 29 mph 1010.4mb 40f 48f
8:50 6.5ft 7s 5s 27 31 mph 1010.1mb 40f 48f
7:50 6ft 7s 5s 27 31 mph 1009.6mb 41f 48f
6:50 6ft 6s 5s 25 29 mph 1009.6mb 41f 49f
5:50 5.5ft 6s 5s 22 27 mph 1009.7mb 41f 48f
4:50 5.5ft 6s 5s 20 25 mph 1010.2mb 41f 49f
3:50 5ft 6s 5s 25 29 mph 1010.2mb 42f 49f
2:50 5ft 6s 5s 25 27 mph 1010.3mb 41f 49f
1:50 4.5ft 6s 5s 25 29 mph 1011.1mb 41f 50f
12:50 4ft 6s 5s 9 13 mph 1012.6mb 42f 46f
11:50 3.5ft 6s 5s 4 7 mph 1013.5mb 42f 43f
10:50 3.5ft 6s 5s 2 4 mph 1014.2mb 42f 40f
9:50 3.5ft 6s 5s  -  2 mph 1014.7mb 40f 39f
8:50 3.5ft 6s 5s 2 4 mph 1014.8mb 40f 38f
7:50 3.5ft 6s 5s 2 4 mph 1015.1mb 40f 38f
6:50 3.5ft 6s 5s  -  2 mph 1015.3mb 40f 38f
5:50 3.5ft 6s 5s  -  2 mph 1015.4mb 40f 38f
4:50 3.5ft 6s 5s  -  2 mph 1015.6mb 40f 39f
3:50 3ft 6s 5s 2 4 mph 1015.8mb 40f 39f
2:50 3ft 6s 5s 4 7 mph 1016.2mb 40f 39f
1:50 3.5ft 6s 5s 4 7 mph 1016.1mb 40f 40f
12:50 3.5ft 5s 5s 4 7 mph 1016.4mb 39f 41f
Dom 04/13 11:50 3.5ft 5s 5s 4
mph
1016.9mb 39f 41f
10:50 3.5ft 5s 5s 2 4 mph 1016.8mb 39f 42f
9:50 3ft 4s 5s 7 9 mph 1017.8mb 40f 41f
8:50 3ft 5s 5s 11 13 mph 1017.6mb 40f 41f
7:50 3ft 7s 5s 9
mph
1019.1mb 40f 41f
6:50 3ft 5s 5s 9 11 mph 1019.5mb 40f 41f
5:50 3ft 5s 5s 11
mph
1020.1mb 40f 42f
4:50 3.5ft 5s 5s 9
mph
1021.2mb 40f 41f
3:50 3.5ft 5s 5s 7 9 mph 1021.9mb 40f 41f
2:50 3.5ft 5s 4s 11 13 mph 1022.9mb 40f 41f
1:50 4ft 5s 4s 18 22 mph 1023.1mb 40f 40f
12:50 4ft 4s 4s 20 25 mph 1023.9mb 40f 40f
11:50 3.5ft 5s 4s 20 25 mph 1025mb 40f 40f
10:50 3.5ft 4s 4s 16 18 mph 1026.2mb 41f 40f
9:50 3.5ft 4s 4s 13 18 mph 1026.3mb 41f 41f
8:50 3.5ft 4s 4s 16 20 mph 1025.9mb 41f 41f
7:50 3ft 8s 5s 20 22 mph 1025mb 41f 41f
6:50 2.5ft 8s 6s 13 16 mph 1025.6mb 41f 42f
5:50 2.5ft 8s 6s 9 11 mph 1024.8mb 41f 43f
4:50 2.5ft 10s 6s 9
mph
1024.2mb 41f 43f
3:50 2.5ft 8s 6s 7 9 mph 1024mb 41f 44f
2:50 2.5ft 10s 6s 11 13 mph 1023.9mb 41f 44f
1:50 2.5ft 9s 6s 7 9 mph 1024.2mb 42f 44f
12:50 2.5ft 9s 6s 4
mph
1023.5mb 42f 45f
Sáb 04/12 11:50 2.5ft 9s 6s 4 7 mph 1023.1mb 42f 46f
10:50 2.5ft 9s 6s 4 7 mph 1023mb 42f 45f
9:50 2.5ft 8s 6s 9
mph
1022.3mb 43f 45f
8:50 2.5ft 9s 6s 11 13 mph 1021.7mb 44f 46f
7:50 3ft 9s 6s 11
mph
1020.8mb 45f 47f
6:50 3ft 8s 6s 11 13 mph 1019.8mb 43f 52f
5:50 3ft 8s 6s 13 16 mph 1018.9mb 43f 46f
4:50 2.5ft 9s 6s 11 16 mph 1018.6mb 43f 47f
3:50 3ft 8s 6s 13 18 mph 1018.6mb 42f 47f
2:50 2.5ft 9s 5s 13 16 mph 1019mb 42f 47f
1:50 2.5ft 9s 7s 13 16 mph 1019mb 42f 48f
12:50 2.5ft 9s 7s 11 16 mph 1019mb 43f 47f
11:50 2.5ft 10s 6s 9
mph
1019.4mb 43f 49f
10:50 2.5ft 9s 6s 4 7 mph 1019.6mb 42f 49f
9:50 2.5ft 8s 6s 7 9 mph 1019.5mb 41f 47f
8:50 2.5ft 8s 6s 7
mph
1019.1mb 41f 44f
7:50 3ft 7s 6s 9 11 mph 1018.5mb 41f 44f
6:50 2.5ft 9s 6s 9 11 mph 1017.7mb 41f 45f
5:50 3ft 9s 6s 9 11 mph 1016.9mb 41f 45f